ANIK F1-R

导读 | 豆包AI

ANIK F1-R(Anik F1R)是加拿大发射的商用通信卫星,于格林尼治标准时间2005年9月8日8点成功发射,定位于地球同步轨道,主要为北美区域提供广播电视、通信数据传输服务。该卫星设计寿命约15年,在2020年正式退役。退役后因废弃上行设施接入漏洞,曾被黑客团体“劫持”并用于公开直播黑客大会,引发太空网络安全领域广泛讨论。

Basic Information
目录编号:
28868
目录名称:
ANIK F1-R
国际标识:
2005-036A
轨道中心:
EARTH
卫星名称:
ANIK F1-R
卫星全名:
--
卫星状态:
在轨 (已飞行7482 天)
发射日期:
2005-09-08 UTC
国别 :
加拿大 (CA)
星等 :
--
Orbit Information
数据来源 国际轨道数据 AOE轨道数据
星历时间 2026-03-04T11:15:27+0800
6小时前
查看轨道信息
2026-03-03T13:00:00+0800
1天前
查看轨道信息
半长轴 42164.644km 42164.672km
偏心率 0.0002892 0.0002861
轨道倾角 4.044° 4.042°
近地点辐角 299.745° 297.941°
升交点赤经 77.896° 77.910°
平近点角 85.814° 112.828°
近地点 35774.312km 35774.471km
远地点 35798.702km 35798.599km
周期 1436.092分钟 1436.094分钟
每日圈数 1.002721 1.00272
Detailed Information
使用方式:
暂无
2D Orbit Map
3D Orbit Map
Orbit Altitude Analysis Chart
Orbit Inclination Analysis Chart
Orbit Comprehensive Analysis Chart
View Comprehensive Chart